Location: Arrayou
(43.1000°N, 0.0333°E)
Time: 15:33:55
(UTC+00:00)

Daily predictions for brighter satellites

Satellite Brightness Start Highest point End
(mag) Time Altitude Azimuth Time Altitude Azimuth Time Altitude Azimuth
BREEZE-M DEB (TANK) 4.1 19:56:52 10° WNW 20:00:46 87° NNE 20:12:39 10° ESE
ATLAS 2AS CENTAUR R/B 2.8 20:04:03 10° NW 20:10:53 84° SW 20:17:29 10° SSE
Cosmos 1833 4.2 20:07:05 10° SSW 20:12:43 88° ESE 20:18:22 10° NNE
SJ 16-02 1.3 20:12:53 10° S 20:17:10 74° ESE 20:21:30 10° NNE
Cosmos 2315 Rocket 4.2 20:13:17 10° N 20:19:39 64° E 20:25:57 10° SSE
Cosmos 2322 Rocket 2.8 20:14:35 10° NNW 20:20:10 57° WSW 20:25:43 10° S
COSMOS 2455 3.7 20:15:32 10° SSE 20:20:33 28° ESE 20:25:35 10° NE
Cosmos 2333 4.3 20:19:22 10° NNW 20:25:12 87° ENE 20:30:59 10° SSE
Cosmos 2297 Rocket 3.9 20:22:38 10° SE 20:25:26 14° E 20:28:14 10° ENE
Cosmos 1455 3.9 20:23:49 10° NNE 20:26:08 16° ENE 20:28:26 10° ESE
Okean 1-7 4.1 20:23:18 10° SSE 20:26:58 28° E 20:30:38 10° NNE
Meteor 1-23 Rocket 4.5 20:23:04 10° SSW 20:28:46 78° W 20:34:33 10° N
SeaSat 1 4.2 20:25:43 10° E 20:29:17 21° NE 20:32:51 10° N
Okean 3 3.6 20:27:49 10° S 20:31:51 52° E 20:35:56 10° NNE
Cosmos 2219 Rocket 2.3 20:28:16 10° NNW 20:33:58 76° ENE 20:39:38 10° SSE
Cosmos 1758 3.4 20:30:20 10° N 20:34:17 78° W 20:38:13 10° S
Okean-O 2.7 20:31:34 10° SSE 20:35:58 83° WSW 20:40:23 10° NNW
Cosmos 1862 Rocket 3.5 20:34:43 10° S 20:39:07 80° E 20:43:35 10° N
Cosmos 1356 Rocket 3.9 20:35:20 10° SSW 20:39:29 63° WNW 20:43:40 10° N
Okean O Rocket 3.0 20:38:30 10° SSW 20:42:33 37° W 20:46:36 10° NNW
USA 245 4.2 20:40:34 11° SE 20:44:29 49° ENE 20:49:36 10° N
Delta 2 Rocket 4.3 20:44:05 10° SW 20:46:25 18° S 20:47:39 15° SE
CZ-4 R/B 4.3 20:45:09 10° WSW 20:46:42 12° W 20:48:16 10° WNW
CZ-4C R/B 2.1 20:44:32 10° S 20:48:33 41° ESE 20:53:25 10° NE
Cosmos 1242 Rocket 3.0 20:47:12 16° SE 20:48:42 26° E 20:51:01 10° NE
Ariane Rocket 3.7 20:44:24 12° SE 20:48:45 41° ENE 20:53:30 10° N
Cosmos 2228 Rocket 3.8 20:44:21 10° SSW 20:48:51 60° W 20:53:23 10° N
Meteor 1-4 Rocket 2.0 20:46:36 10° S 20:49:34 85° WNW 20:52:35 10° N
Meteor 2-10 Rocket 4.3 20:44:31 10° NNW 20:49:44 52° W 20:54:43 10° S
MOS 1 4.5 20:44:23 10° S 20:50:01 74° WSW 20:55:41 10° NNW
MetOp-B 4.2 20:45:22 10° SSE 20:50:44 87° WSW 20:56:08 10° NNW
Terra 2.1 20:49:49 13° SSE 20:53:54 54° ENE 20:58:31 10° N
Meteor 2-20 4.5 20:50:48 10° N 20:57:00 88° E 21:03:07 10° S
Cosmos 1707 Rocket 4.4 20:53:55 10° SSW 20:58:14 52° W 21:02:34 10° N
MOS 1 Rocket 3.8 20:54:47 14° SSE 20:59:16 55° ENE 21:04:16 10° N
Cosmos 839 Rocket 4.2 20:56:32 10° NW 21:03:08 70° WSW 21:08:24 14° SSE
Cosmos 2360 Rocket 3.7 20:59:14 10° NW 21:04:12 32° WSW 21:09:09 10° SSW
ARGOS Delta rocket 4.3 21:00:57 10° S 21:05:14 53° W 21:09:33 10° NNW
Cosmos 1953 2.3 21:03:07 10° N 21:06:53 59° E 21:09:25 19° SSE
COSMOS 2428 2.8 21:02:54 10° NNW 21:08:36 68° ENE 21:12:54 18° SE
USA 234 3.7 21:03:02 10° ENE 21:09:00 37° SE 21:14:57 10° SSW
SPOT 5 3.3 21:05:11 10° S 21:09:26 53° W 21:13:53 10° NNW
IRS-1C Rocket 4.4 21:08:38 11° S 21:13:43 66° WSW 21:18:58 10° NNW
Cosmos 1733 Rocket 4.3 21:09:42 10° NNW 21:13:51 40° W 21:17:59 10° SSW
BREEZE-M DEB (TANK) 4.5 21:13:17 10° WNW 21:15:34 31° N 21:19:57 10° ENE
BlueWalker 3 4.5 21:18:08 10° WNW 21:21:11 23° NNW 21:24:14 10° NE
ERS-1 Rocket 3.3 21:21:23 14° S 21:25:40 64° WSW 21:30:40 10° NNW
Cosmos 1315 Rocket 3.7 21:22:19 10° SSW 21:26:11 49° WNW 21:30:06 10° N
SL-4 R/B 2.0 21:26:34 10° WNW 21:30:24 63° SW 21:32:20 28° SE
SL-08 R/B 4.4 21:25:04 10° S 21:31:07 87° E 21:37:16 10° N
Cosmos 2084 Rocket 3.3 21:28:00 10° SSW 21:32:20 85° SE 21:36:33 10° NE
Cosmos 1408 2.8 21:32:50 33° ESE 21:33:08 34° E 21:35:54 10° NNE
Cosmos 773 Rocket 4.5 21:31:11 10° N 21:36:10 47° ENE 21:39:00 24° SE
Cosmos 1908 Rocket 3.6 21:32:42 10° NNW 21:37:01 73° W 21:39:43 22° S
Cosmos 2242 Rocket 4.3 21:35:52 26° SE 21:37:44 39° E 21:41:58 10° NNE
BREEZE-M DEB (TANK) 2.2 21:38:43 10° WNW 21:40:52 64° SSW 21:41:58 35° SE
Cosmos 1782 Rocket 3.6 21:36:50 10° N 21:41:09 63° E 21:43:07 30° SSE
Cosmos 1709 Rocket 4.5 21:38:03 23° SSE 21:41:40 45° E 21:47:37 10° NNE
Cosmos 1570 Rocket 4.5 21:39:28 10° NNW 21:44:42 56° WSW 21:48:10 21° S
Cosmos 1300 Rocket 3.7 21:40:31 10° N 21:44:47 56° E 21:46:34 32° SE
SL-16 R/B 4.1 21:41:44 10° N 21:45:50 20° NE 21:49:55 10° E
Cosmos 2237 Rocket 2.5 21:41:38 10° NNW 21:47:12 55° ENE 21:50:16 26° SE
NOSS 3-2 (A) 4.2 21:48:36 22° ESE 21:48:55 22° ESE 21:53:12 10° ENE
Cosmos 2227 Rocket 2.8 21:47:45 27° SSE 21:49:55 37° ESE 21:55:04 10° NE
Landsat 4 4.3 21:53:29 27° SSW 21:54:54 43° W 21:58:11 10° NNW
SJ 16-02 4.5 21:54:16 10° W 21:56:04 12° NW 21:57:51 10° NNW
Cosmos 1455 3.7 21:57:32 10° NNW 22:00:34 27° W 22:02:27 17° SW
EXPRESS MD2 3.5 21:59:15 10° NW 22:01:24 30° NNE 22:01:35 29° NNE
Cosmos 1980 3.7 21:56:15 10° NNW 22:01:57 77° ENE 22:04:42 32° SE
Meteor 2-5 Rocket 4.1 21:59:20 29° SSE 22:01:58 50° E 22:07:31 10° NNE
NOSS 0 Rocket 4.1 21:57:18 10° NNW 22:03:32 70° WSW 22:06:54 28° S
Cosmos 1777 Rocket 3.9 22:01:00 26° S 22:04:00 70° ESE 22:09:16 10° NNE
GP-B 3.0 22:00:39 10° N 22:05:06 82° E 22:06:48 37° S
ARIANE 5 R/B 3.6 22:03:45 27° ESE 22:05:09 34° ENE 22:09:06 10° N
Landsat 5 3.7 22:01:26 10° N 22:05:36 71° WNW 22:08:06 24° SSW
Cosmos 1825 4.1 22:06:40 14° ENE 22:06:40 14° ENE 22:08:03 10° NE
COSMOS 2455 3.7 22:00:19 10° SW 22:06:09 51° NW 22:12:03 10° NNE
SeaSat 1 2.6 22:04:02 32° S 22:06:17 67° WSW 22:11:11 10° NNW
Cosmos 2297 Rocket 2.2 22:03:21 12° SSW 22:08:40 82° WNW 22:14:21 10° NNE
Cosmos 1174 3.8 22:05:27 10° NNW 22:10:04 77° ENE 22:11:05 48° SE
Cosmos 1703 3.0 22:10:39 55° SSE 22:11:14 67° E 22:14:53 10° NNE
MetOp-A 4.1 22:09:42 32° S 22:12:14 76° WSW 22:17:24 10° NNW
Cosmos 1503 Rocket 4.1 22:11:46 19° SSW 22:15:41 78° WNW 22:21:00 10° NNE
Cosmos 2219 Rocket 4.4 22:13:56 10° WNW 22:17:10 16° W 22:20:24 10° SW
SL-23 DEB 4.3 22:21:15 10° WSW 22:25:01 77° NNW 22:31:19 10° ENE
Cosmos 2219 3.7 22:23:58 35° SE 22:25:04 38° ESE 22:30:13 10° NE
Cosmos 1461 4.4 22:26:32 21° E 22:26:32 21° E 22:28:28 10° ENE
CENTAUR R/B 2.3 22:22:27 24° SSW 22:25:53 73° ESE 22:32:38 10° NE
Cosmos 371 Rocket 4.4 22:21:31 10° SW 22:26:02 41° WNW 22:30:37 10° N
Cosmos 2263 Rocket 3.1 22:27:07 28° ESE 22:27:38 28° ESE 22:32:19 10° NE
Cosmos 1892 3.5 22:31:14 32° ENE 22:31:14 32° ENE 22:34:00 10° NNE
Terra 4.1 22:28:52 10° SW 22:31:49 16° W 22:34:47 10° NW
Cosmos 2151 Rocket 4.1 22:28:48 10° N 22:33:01 45° ENE 22:33:47 41° ESE
Meteor 1-24 Rocket 3.6 22:32:43 34° S 22:35:20 88° W 22:40:52 10° N
CZ-4C R/B 3.9 22:32:59 10° W 22:37:04 30° NW 22:42:03 10° NNE
Okean 2 Rocket 3.6 22:33:08 10° N 22:37:29 47° ENE 22:38:18 41° ESE
ALOS 2 3.7 22:46:36 29° E 22:47:32 32° ENE 22:51:27 10° N
Cosmos 1898 Rocket 4.4 22:48:08 30° ESE 22:48:23 30° E 22:52:51 10° NE
Cosmos 292 Rocket 4.3 22:49:43 40° ESE 22:49:55 40° ESE 22:54:25 10° NE
Cosmos 405 Rocket 2.7 22:48:05 10° NNW 22:51:51 66° W 22:51:59 65° WSW
USA 234 3.5 22:45:46 10° NE 22:52:16 69° NW 22:58:44 10° WSW
H-2A R/B 4.2 22:55:33 10° ENE 22:57:02 13° E 22:57:02 13° E
PSLV R/B 3.8 22:53:52 10° N 22:57:51 78° WNW 22:58:17 67° SW
USA 281 3.2 22:56:14 37° SE 22:59:05 78° ENE 23:05:41 10° NNW
Cosmos 2074 Rocket 4.1 22:58:51 42° SSE 23:00:50 63° E 23:06:59 10° NNE
Aureole 1 Rocket 3.2 23:05:07 52° E 23:05:07 52° E 23:09:44 10° NNE
Cosmos 990 Rocket 3.9 23:04:49 48° SSW 23:06:18 85° WNW 23:11:28 10° NNE
Cosmos 2181 Rocket 3.9 23:00:59 10° N 23:07:09 81° W 23:09:14 44° S
CZ-2C R/B 4.5 23:03:14 10° N 23:07:30 45° WNW 23:09:06 32° WSW
TIMED 4.4 23:08:04 65° ESE 23:08:05 65° ESE 23:12:23 10° NNE
Cosmos 2221 Rocket 3.5 23:07:38 67° SSW 23:08:13 84° W 23:12:39 10° N
Cosmos 1328 4.0 23:09:17 55° ENE 23:09:17 55° ENE 23:12:49 10° NNE
Okean 1 Rocket 3.0 23:09:19 10° N 23:13:43 72° E 23:14:06 67° ESE
Cosmos 1295 Rocket 4.4 23:12:40 46° SSE 23:14:30 70° E 23:20:38 10° NNE
Cosmos 2098 Rocket 4.4 23:10:05 10° NNW 23:16:12 51° W 23:18:14 35° SW
Sich 1 Rocket 3.6 23:12:25 10° NNW 23:16:46 66° W 23:17:10 62° SW
Meteor 1-21 Rocket 4.5 23:21:21 46° SE 23:22:33 55° E 23:28:01 10° NNE
Cosmos 1025 Rocket 3.0 23:23:54 64° E 23:23:57 64° E 23:28:13 10° NNE
Cosmos 372 Rocket 4.1 23:26:39 54° SE 23:27:15 58° ESE 23:32:22 10° NNE
SL-16 R/B 2.1 23:24:53 10° NNW 23:30:34 75° WSW 23:31:50 54° S
Cosmos 2237 Rocket 3.7 23:26:34 10° NW 23:30:47 22° W 23:32:05 20° WSW
Cosmos 1975 Rocket 3.9 23:31:37 38° E 23:31:38 38° E 23:35:44 10° NNE
H-2A R/B 2.8 23:32:04 51° WSW 23:32:11 51° W 23:36:17 10° NNW
Cosmos 2227 Rocket 3.5 23:29:29 13° WSW 23:33:56 35° NW 23:39:07 10° N
Cosmos 1943 4.1 23:30:36 10° NNW 23:35:55 41° ENE 23:38:26 26° ESE
Cosmos 2082 3.6 23:36:07 48° SSW 23:37:45 83° WNW 23:43:24 10° NNE
NOSS 3-2 (A) 3.7 23:35:54 23° WSW 23:39:02 55° NW 23:45:03 10° NNE
Cosmos 1825 3.5 23:40:07 28° WNW 23:40:07 28° WNW 23:42:59 10° NNW
ARIANE 5 R/B 4.2 23:41:12 22° WSW 23:41:35 22° W 23:45:02 10° NW
Nadezhda 3 Rocket 3.9 23:35:23 10° N 23:41:38 87° E 23:43:26 50° S
Cosmos 1455 Rocket 3.2 23:37:27 10° N 23:41:53 60° E 23:42:11 59° E
Spot 4 4.5 23:49:08 40° WSW 23:49:38 41° W 23:54:13 10° NNW
NOSS 3-2 (C) 3.0 23:49:28 55° SSW 23:50:42 86° SE 23:56:47 10° NE
Cosmos 858 Rocket 4.5 23:50:30 58° SE 23:51:07 63° ESE 23:56:16 10° NNE
